Hourly Data Report for June 01, 2012

HALIFAX STANFIELD INT'L A
NOVA SCOTIA

44°52'48.060" N
63°30'00.050" W
145.40 m
8202250
71395
YHZ

Download Data

Hourly Data (June 2012)
Hourly Data Report for June 1, 2012
TIME
LST
Temp Definition
°C
Dew Point Definition
°C
Rel Hum Definition
%
Precip. Amount Definition
mm

Wind Dir Definition
10's deg

Wind Spd Definition
km/h
Visibility Definition
km
Stn Press Definition
kPa
Hmdx Definition


Wind Chill Definition


Weather Definition


00:00 8.3 8.1 99   15 4 0.8 99.42     Fog
01:00 8.2 8.2 100     0 1.2 99.44     Fog
02:00 8.4 8.2 99   17 6 0.8 99.42     Fog
03:00 8.4 8.3 99     0 3.2 99.42     Fog
04:00 8.9 8.7 99   28 4 3.2 99.45     Fog
05:00 9.3 9.1 99   33 4 1.2 99.49     Fog
06:00 9.9 9.7 99   32 9 0.8 99.57     Fog
07:00 10.7 10.4 98   33 19 16.1 99.64     Cloudy
08:00 12.4 10.2 86   34 20 24.1 99.66     Cloudy
09:00 13.4 9.6 78   36 20 24.1 99.64     Mostly Cloudy
10:00 13.8 9.6 76   35 20 24.1 99.67     Mostly Cloudy
11:00 15.2 7.8 61   34 26 24.1 99.65     Mostly Cloudy
12:00 15.7 7.9 60   34 17 24.1 99.65     Mostly Cloudy
13:00 15.8 8.1 60   32 26 24.1 99.66     Mostly Cloudy
14:00 16.0 8.7 62   34 28 24.1 99.70     Mostly Cloudy
15:00 16.0 8.5 61   36 22 24.1 99.73     Mostly Cloudy
16:00 15.9 7.7 58   36 26 24.1 99.80     Mostly Cloudy
17:00 15.6 7.7 59   1 24 24.1 99.85     Mainly Clear
18:00 14.9 6.7 58   2 30 24.1 99.86     Mainly Clear
19:00 14.2 6.8 61   36 19 24.1 99.93     Clear
20:00 11.8 7.1 73   2 7 24.1 99.95     Clear
21:00 10.7 7.2 79   2 11 24.1 100.03     Clear
22:00 9.8 7.0 83   1 9 24.1 100.07     Clear
23:00 9.5 7.0 84   36 6 24.1 100.12     Clear

Notes on Data Quality.

Legend

  • E = Estimated
  • M = Missing
  • NA = Not Available*
  • [empty] = Indicates an unobserved value
Date modified: